Updated17/02/2019 21:40 
 

GeoURL
free counters
Scottish Weather Network UK Weather Network Cumulus Top Weather Sites

Peebles Weather - Global Earthquakes

Raw Data, Raw Data Expanded

Ignore low humidity and Dew Point values. Something wrong with the sensor.
Daytime temperatures are in direct sunlight so may be higher than official air temperature values.
As with any other website, we log your IP address and browser type in the server logs for diagnostic reasons. Cookies are used to record visit time and gauges preferences. No personal information is stored or processed.

All times are in local time (GMT, or BST in summer) unless specified.

2019/02/17 21:20 EGPH 172120Z 20022KT 9999 -RA FEW016 SCT036 09/05 Q1003
8.2°C 0.6 mm 0.9 mm 0.9 mm 11.5 mph 18.3 mph 999.8 hPa 82% X-Ray Solar Flare Level
Planetary K-Index
Planetary K-Index History
Station Warn Rain Snow Flood Wind Ltng Heat Cold Glob Moon Temp Rain 1h Rain Sun Rain 24h Wind 10m Gust Pressure Hum Proton Levels

0.411 m Waxing Gibbous Cold F3-SSE F: A: Kp:0 SSN:0

Recent Earthquakes

Tsunami Information
Tafoni Recent Earthquake Map

 

XHTML 1.1 | CSS